Home > Weather > Coquitlam > Past weeks

Flag for Canada Weather for the Past 2 Weeks in Coquitlam, British Columbia, Canada

Now
35 °F

Chilly.


Feels Like: 35 °F
Forecast: 39 / 60 °F
Wind: No wind

Location: P. Meadows Coastal Station

Current Time: Feb 9, 2016 at 10:01:08 AM

Latest Report: Feb 9, 2016 at 9:00 AM


Visibility: N/A

Pressure: 30.21 "Hg

Humidity: 100%

Dew point: 35 °F

Location of CoquitlamLocation

Historic Weather in Coquitlam — Graph

°F

Coquitlam Temperature Yesterday

Maximum temperature yesterday: 59 °F (at 4:00 PM)
Minimum temperature yesterday: 37 °F (at 8:00 AM)
Average temperature yesterday: 45 °F

High & Low Weather Summary for the Past Weeks

 TemperatureHumidityPressure
High59 °F (Feb 8, 4:00 PM)100% (Jan 27, 2:00 PM)30.62 "Hg (Jan 27, 2:00 PM)
Low33 °F (Jan 30, 2:00 AM)59% (Jan 28, 1:00 PM)29.60 "Hg (Jan 29, 11:00 AM)
Average43 °F90%30.15 "Hg
* Reported Jan 25 9:00 AM — Feb 9 9:00 AM, Coquitlam, Weather by CustomWeather, © 2016

Note: Actual official high and low records may vary slightly from our data, if they occured in-between our weather recording intervals... More about our weather records

Advertising

Coquitlam Weather History for the Previous 24 Hours

 ConditionsComfort  
Time TempWeatherWind HumidityBarometerVisibility
9:00 AM
Tue, Feb 9
35 °FChilly.No wind100%30.21 "HgN/A
8:00 AM34 °FChilly.1 mph99%30.20 "HgN/A
7:00 AM34 °FChilly.1 mph99%30.20 "HgN/A
6:00 AM34 °FChilly.No wind99%30.21 "HgN/A
5:00 AM35 °FChilly.1 mph100%30.23 "HgN/A
4:00 AM36 °FChilly.1 mph99%30.24 "HgN/A
3:00 AM36 °FChilly.No wind99%30.25 "HgN/A
2:00 AM36 °FChilly.1 mph99%30.27 "HgN/A
1:00 AM36 °FChilly.2 mph99%30.29 "HgN/A
12:00 AM37 °FChilly.1 mph92%30.31 "HgN/A
11:00 PM
Mon, Feb 8
39 °FChilly.1 mph98%30.33 "HgN/A
10:00 PM40 °FChilly.1 mph97%30.34 "HgN/A
9:00 PM42 °FQuite cool.No wind97%30.35 "HgN/A
8:00 PM44 °FQuite cool.1 mph95%30.36 "HgN/A
7:00 PM46 °FCool.2 mph91%30.37 "HgN/A
6:00 PM50 °FCool.1 mph85%30.38 "HgN/A
5:00 PM54 °FCool.5 mph75%30.39 "HgN/A
4:00 PM59 °FCool.2 mph65%30.39 "HgN/A
3:00 PM58 °FCool.2 mph68%30.40 "HgN/A
2:00 PM56 °FCool.2 mph71%30.42 "HgN/A
1:00 PM52 °FCool.1 mph77%30.44 "HgN/A
12:00 PM50 °FCool.2 mph80%30.47 "HgN/A
11:00 AM46 °FCool.No wind87%30.50 "HgN/A
10:00 AM45 °FCool.1 mph84%30.50 "HgN/A
Weather by CustomWeather, © 2016

See weather overviewHow to use our weather pages